Home   Weather   San Miguel   Past weeks

Flag for El Salvador Past Weather in San Miguel, El Salvador — Yesterday and Last 2 Weeks

Now
75 °F

Passing clouds.


Feels Like: 75 °F
Forecast: 71 / 90 °F
Wind: 2 mph from Northeast

Location: El Salvador Intl. Airport / Comalapa

Current Time: Feb 22, 2017 at 5:13:30 am

Latest Report: Feb 21, 2017 at 11:50 pm


Visibility: N/A

Pressure: 29.89 "Hg

Humidity: 83%

Dew Point: 70 °F

Location of San MiguelLocation

Past Weather in San Miguel — Graph

°F

San Miguel Temperature Yesterday

Maximum temperature yesterday: 90 °F (at 10:50 am)
Minimum temperature yesterday: 66 °F (at 5:50 am)
Average temperature yesterday: 79 °F

High & Low Weather Summary for the Past Weeks

 TemperatureHumidityPressure
High97 °F (Feb 10, 11:50 am)100% (Feb 15, 3:50 am)30.01 "Hg (Feb 15, 3:50 am)
Low64 °F (Feb 14, 4:50 am)30% (Feb 11, 11:50 am)29.74 "Hg (Feb 7, 3:50 pm)
Average80 °F68%29.89 "Hg
* Reported Feb 6 11:50 pm — Feb 21 11:50 pm, San Miguel, Weather by CustomWeather, © 2017

Note: Actual official high and low records may vary slightly from our data, if they occured in-between our weather recording intervals... More about our weather records

Advertising

San Miguel Weather History for the Previous 24 Hours

Scroll right to see more
 ConditionsComfort  
Time TempWeatherWind HumidityBarometerVisibility
11:50 pm
Tue, Feb 21
75 °FPassing clouds.2 mph83%29.89 "HgN/A
10:50 pm77 °FPassing clouds.2 mph79%29.89 "HgN/A
9:50 pm77 °FPassing clouds.3 mph83%29.89 "HgN/A
8:50 pm79 °FClear.2 mph84%29.89 "Hg10 mi
7:50 pm79 °FClear.2 mph84%29.86 "Hg10 mi
6:50 pm79 °FClear.5 mph84%29.83 "Hg10 mi
5:50 pm82 °FSunny.9 mph70%29.83 "Hg10 mi
4:50 pm86 °FSunny.12 mph62%29.80 "Hg10 mi
2:50 pm88 °FPassing clouds.12 mph52%29.83 "HgN/A
1:50 pm90 °FPassing clouds.10 mph46%29.86 "HgN/A
12:50 pm90 °FPassing clouds.9 mph46%29.86 "HgN/A
11:50 am90 °FPassing clouds.10 mph46%29.92 "HgN/A
10:50 am90 °FPassing clouds.6 mph46%29.92 "HgN/A
9:50 am88 °FPassing clouds.3 mph49%29.95 "HgN/A
8:50 am86 °FPassing clouds.3 mph59%29.95 "HgN/A
7:50 am81 °FSunny.3 mph66%29.92 "Hg5 mi
6:50 am72 °FMild.2 mph83%29.92 "Hg6 mi
5:50 am66 °FClear.5 mph94%29.89 "Hg10 mi
Weather by CustomWeather, © 2017

See weather overviewHow to use our weather pages